DW7793 Weather Reports


time (UTC)temp
C
wind
direction
speed
KPH
gust
KPH
rain 1hr
cm
rain 24hr
cm
rain mn
cm
humidity
%
barometer
mb
20260906123014 23 319 0.0 0.0 0.00 0.00 0.00 93 1013.0
20260906121516 23 319 0.0 0.0 0.00 0.00 0.00 93 1012.9
20260906120007 22 319 0.0 0.0 0.00 0.00 0.00 93 1012.7
20260906114504 22 319 0.0 0.0 0.00 0.00 0.00 93 1012.6
20260906113002 22 319 0.0 0.0 0.00 0.00 0.00 92 1012.5
20260906111558 22 319 0.0 0.0 0.00 0.00 0.00 92 1012.4
20260906110012 23 319 0.0 0.0 0.00 0.00 0.00 91 1012.0
20260906104511 23 322 0.0 0.0 0.00 0.00 0.00 90 1011.8
20260906103004 23 61 0.0 0.0 0.00 0.00 0.00 90 1011.8
20260906101502 23 39 0.0 0.0 0.00 0.00 0.00 90 1011.9
20260906100007 23 264 0.0 0.0 0.00 0.00 0.00 90 1011.9
20260906094502 22 264 0.0 0.0 0.00 0.00 0.00 90 1012.0
20260906093010 22 158 0.0 0.0 0.00 0.00 0.00 90 1011.8
20260906091506 23 158 0.0 0.0 0.00 0.00 0.00 90 1011.8
20260906090115 23 158 0.0 0.0 0.00 0.00 0.00 90 1011.9
20260906084515 23 164 0.0 0.0 0.00 0.00 0.00 90 1011.9
20260906083003 23 285 0.0 0.0 0.00 0.00 0.00 90 1011.9
20260906081505 23 229 0.0 0.0 0.00 0.00 0.00 89 1011.9
20260906080104 22 241 0.0 0.0 0.00 0.00 0.00 89 1012.0
20260906074503 23 140 0.0 0.0 0.00 0.00 0.00 89 1012.0
20260906073000 23 89 0.0 0.0 0.00 0.00 0.00 88 1012.1
20260906071504 23 185 0.0 0.0 0.00 0.00 0.00 87 1012.4
20260906064601 23 322 0.0 0.0 0.00 0.00 0.00 88 1012.5
20260906063055 23 290 0.0 0.0 0.00 0.00 0.00 88 1012.2
20260906061552 23 272 0.0 0.0 0.00 0.00 0.00 88 1012.3
20260906054601 24 131 0.0 0.0 0.00 0.00 0.00 86 1012.8
20260906053059 24 120 0.0 1.6 0.00 0.00 0.00 86 1013.1
20260906051500 25 209 0.0 3.2 0.00 0.00 0.00 86 1013.0
20260906050131 26 119 0.0 1.6 0.00 0.00 0.00 83 1012.8
20260906044507 27 157 0.0 1.6 0.00 0.00 0.00 77 1012.6
20260906043008 27 347 0.0 0.0 0.00 0.00 0.00 78 1012.7
20260906041517 27 186 0.0 0.0 0.00 0.00 0.00 80 1012.7
20260906040014 26 34 0.0 0.0 0.00 0.00 0.00 82 1012.1
20260906034514 26 34 0.0 0.0 0.00 0.00 0.00 81 1012.1
20260906033027 26 34 0.0 0.0 0.00 0.00 0.00 81 1012.3
20260906031544 26 34 0.0 0.0 0.00 0.00 0.00 80 1012.0
20260906030038 26 221 0.0 0.0 0.00 0.00 0.00 79 1011.9
20260906024545 26 221 0.0 0.0 0.00 0.00 0.00 80 1011.8
20260906023041 26 115 0.0 0.0 0.00 0.00 0.00 80 1011.4
20260906021555 27 341 0.0 0.0 0.00 0.00 0.00 79 1011.2
20260906020043 27 341 0.0 0.0 0.00 0.00 0.00 76 1010.6
20260906014538 27 219 0.0 0.0 0.00 0.00 0.00 75 1010.8
20260906013036 28 77 0.0 0.0 0.00 0.00 0.00 73 1010.8
20260906011540 28 185 0.0 0.0 0.00 0.00 0.00 71 1011.0
20260906010039 29 73 0.0 8.0 0.00 0.00 0.00 69 1011.4
20260906004543 31 8 0.0 0.0 0.00 0.00 0.00 70 1011.4
20260906003047 31 142 0.0 0.0 0.00 0.00 0.00 68 1010.9
20260906001542 32 343 0.0 0.0 0.00 0.00 0.00 63 1010.7
20260906000051 33 343 0.0 0.0 0.00 0.00 0.00 60 1010.4
20260905234612 34 300 0.0 0.0 0.00 0.00 0.00 58 1010.2
20260905233005 35 319 0.0 0.0 0.00 0.00 0.00 55 1010.4
20260905231503 35 226 0.0 0.0 0.00 0.00 0.00 56 1010.3
20260905230002 35 345 0.0 0.0 0.00 0.00 0.00 56 1010.3
20260905224609 35 10 0.0 0.0 0.00 0.00 0.00 53 1010.3
20260905223058 35 129 0.0 0.0 0.00 0.00 0.00 55 1010.3
20260905221507 36 351 0.0 0.0 0.00 0.00 0.00 51 1010.3
20260905220002 37 20 0.0 0.0 0.00 0.00 0.00 48 1010.3
20260905214511 37 49 0.0 0.0 0.00 0.00 0.00 48 1010.4
20260905213009 37 83 0.0 0.0 0.00 0.00 0.00 49 1010.5
20260905211516 36 96 0.0 0.0 0.00 0.00 0.00 50 1010.5
20260905210018 37 218 0.0 0.0 0.00 0.00 0.00 49 1010.7
20260905204514 37 46 0.0 0.0 0.00 0.00 0.00 50 1010.9
20260905203105 37 257 0.0 0.0 0.00 0.00 0.00 49 1011.0
20260905201555 37 277 0.0 0.0 0.00 0.00 0.00 52 1011.3
20260905200059 37 203 0.0 0.0 0.00 0.00 0.00 51 1011.5
20260905194559 37 185 0.0 0.0 0.00 0.00 0.00 51 1011.8
20260905193002 36 321 0.0 0.0 0.00 0.00 0.00 52 1011.9
20260905191510 37 7 0.0 0.0 0.00 0.00 0.00 51 1011.9
20260905190103 36 255 0.0 0.0 0.00 0.00 0.00 56 1012.3
20260905184514 36 63 0.0 0.0 0.00 0.00 0.00 54 1012.6
20260905183005 37 68 0.0 0.0 0.00 0.00 0.00 52 1012.8
20260905181510 36 236 0.0 0.0 0.00 0.00 0.00 54 1013.1
20260905180006 36 21 0.0 0.0 0.00 0.00 0.00 53 1013.5
20260905174557 36 17 0.0 0.0 0.00 0.00 0.00 53 1013.5
20260905173053 35 103 0.0 0.0 0.00 0.00 0.00 58 1013.6
20260905171548 35 269 0.0 0.0 0.00 0.00 0.00 60 1013.5
20260905170049 34 266 0.0 0.0 0.00 0.00 0.00 61 1013.7
20260905164516 35 186 0.0 0.0 0.00 0.00 0.00 62 1013.9
20260905163104 34 284 0.0 0.0 0.00 0.00 0.00 64 1014.0
20260905161553 33 187 0.0 0.0 0.00 0.00 0.00 65 1014.3
20260905160058 32 24 0.0 0.0 0.00 0.00 0.00 68 1014.4
20260905154604 31 321 0.0 0.0 0.00 0.00 0.00 72 1014.5
20260905153055 30 290 0.0 0.0 0.00 0.00 0.00 78 1014.6
20260905151556 30 360 0.0 0.0 0.00 0.00 0.00 78 1014.7
20260905150003 29 330 0.0 0.0 0.00 0.00 0.00 82 1014.7
20260905144557 28 186 0.0 0.0 0.00 0.00 0.00 85 1014.7
20260905143013 27 186 0.0 0.0 0.00 0.00 0.00 88 1014.8
20260905141614 26 186 0.0 0.0 0.00 0.00 0.00 90 1014.7
20260905140009 26 186 0.0 0.0 0.00 0.00 0.00 93 1014.7
20260905134607 26 185 0.0 0.0 0.00 0.00 0.00 94 1014.8
20260905133001 25 219 0.0 0.0 0.00 0.00 0.00 94 1014.8
20260905131606 25 200 0.0 0.0 0.00 0.00 0.00 96 1014.8
20260905130005 24 200 0.0 0.0 0.00 0.00 0.00 96 1014.8
20260905124501 23 186 0.0 0.0 0.00 0.00 0.00 97 1014.9